Location: Asheville, NC
(35.6000°N, 82.5500°W)
Time: 10:39:27
(UTC-04:00)

KKS-1 - Pass Details

Date: 11 March 2018
Orbit: 638 x 649 km, 98.4° (Epoch: 18 June)

Event Time Altitude Azimuth Distance (km) Brightness Sun altitude
Rises 20:16:57 0° 352° (N) 2,965 ? -9.5°
Reaches altitude 10° 20:19:56 10° 330° (NNW) 2,048 ? -10.1°
Maximum altitude 20:22:35 16° 294° (WNW) 1,692 ? -10.6°
Drops below altitude 10° 20:25:12 10° 257° (WSW) 2,036 ? -11.2°
Sets 20:28:10 0° 236° (SW) 2,938 ? -11.7°
